Year,Month,Day,Hour,Minute,Value (Times are PST for temperature in C)
2018,07,16,00,00,20.70
2018,07,16,00,01,20.70
2018,07,16,00,02,20.70
2018,07,16,00,03,20.60
2018,07,16,00,04,20.60
2018,07,16,00,05,20.60
2018,07,16,00,06,20.60
2018,07,16,00,07,20.60
2018,07,16,00,08,20.50
2018,07,16,00,09,20.50
2018,07,16,00,10,20.50
2018,07,16,00,11,20.40
2018,07,16,00,12,20.40
2018,07,16,00,13,20.40
2018,07,16,00,14,20.40
2018,07,16,00,15,20.30
2018,07,16,00,16,20.30
2018,07,16,00,17,20.20
2018,07,16,00,18,20.20
2018,07,16,00,19,20.10
2018,07,16,00,20,20.00
2018,07,16,00,21,20.00
2018,07,16,00,22,19.90
2018,07,16,00,23,19.80
2018,07,16,00,24,19.70
2018,07,16,00,25,19.60
2018,07,16,00,26,19.50
2018,07,16,00,27,19.50
2018,07,16,00,28,19.40
2018,07,16,00,29,19.40
2018,07,16,00,30,19.30
2018,07,16,00,31,19.30
2018,07,16,00,32,19.30
2018,07,16,00,33,19.30
2018,07,16,00,34,19.30
2018,07,16,00,35,19.30
2018,07,16,00,36,19.20
2018,07,16,00,37,19.20
2018,07,16,00,38,19.10
2018,07,16,00,39,19.10
2018,07,16,00,40,19.00
2018,07,16,00,41,19.00
2018,07,16,00,42,18.90
2018,07,16,00,43,18.80
2018,07,16,00,44,18.80
2018,07,16,00,45,18.70
2018,07,16,00,46,18.70
2018,07,16,00,47,18.70
2018,07,16,00,48,18.60
2018,07,16,00,49,18.60
2018,07,16,00,50,18.50
2018,07,16,00,51,18.40
2018,07,16,00,52,18.40
2018,07,16,00,53,18.30
2018,07,16,00,54,18.30
2018,07,16,00,55,18.20
2018,07,16,00,56,18.20
2018,07,16,00,57,18.10
2018,07,16,00,58,18.00
2018,07,16,00,59,17.90
2018,07,16,01,00,17.80
2018,07,16,01,01,17.70
2018,07,16,01,02,17.60
2018,07,16,01,03,17.50
2018,07,16,01,04,17.50
2018,07,16,01,05,17.40
2018,07,16,01,06,17.30
2018,07,16,01,07,17.30
2018,07,16,01,08,17.20
2018,07,16,01,09,17.20
2018,07,16,01,10,17.10
2018,07,16,01,11,17.10
2018,07,16,01,12,17.00
2018,07,16,01,13,16.90
2018,07,16,01,14,16.90
2018,07,16,01,15,16.80
2018,07,16,01,16,16.80
2018,07,16,01,17,16.70
2018,07,16,01,18,16.60
2018,07,16,01,19,16.60
2018,07,16,01,20,16.50
2018,07,16,01,21,16.50
2018,07,16,01,22,16.40
2018,07,16,01,23,16.30
2018,07,16,01,24,16.30
2018,07,16,01,25,16.20
2018,07,16,01,26,16.20
2018,07,16,01,27,16.20
2018,07,16,01,28,16.10
2018,07,16,01,29,16.10
2018,07,16,01,30,16.10
2018,07,16,01,31,16.00
2018,07,16,01,32,16.00
2018,07,16,01,33,15.90
2018,07,16,01,34,15.90
2018,07,16,01,35,15.90
2018,07,16,01,36,15.80
2018,07,16,01,37,15.80
2018,07,16,01,38,15.80
2018,07,16,01,39,15.80
2018,07,16,01,40,15.80
2018,07,16,01,41,15.70
2018,07,16,01,42,15.70
2018,07,16,01,43,15.70
2018,07,16,01,44,15.70
2018,07,16,01,45,15.60
2018,07,16,01,46,15.60
2018,07,16,01,47,15.60
2018,07,16,01,48,15.50
2018,07,16,01,49,15.50
2018,07,16,01,50,15.40
2018,07,16,01,51,15.40
2018,07,16,01,52,15.40
2018,07,16,01,53,15.40
2018,07,16,01,54,15.30
2018,07,16,01,55,15.30
2018,07,16,01,56,15.30
2018,07,16,01,57,15.30
2018,07,16,01,58,15.30
2018,07,16,01,59,15.30
2018,07,16,02,00,15.20
2018,07,16,02,01,15.20
2018,07,16,02,02,15.20
2018,07,16,02,03,15.20
2018,07,16,02,04,15.20
2018,07,16,02,05,15.20
2018,07,16,02,06,15.20
2018,07,16,02,07,15.20
2018,07,16,02,08,15.10
2018,07,16,02,09,15.10
2018,07,16,02,10,15.10
2018,07,16,02,11,15.10
2018,07,16,02,12,15.10
2018,07,16,02,13,15.00
2018,07,16,02,14,15.00
2018,07,16,02,15,15.00
2018,07,16,02,16,15.00
2018,07,16,02,17,14.90
2018,07,16,02,18,14.90
2018,07,16,02,19,14.90
2018,07,16,02,20,14.80
2018,07,16,02,21,14.80
2018,07,16,02,22,14.80
2018,07,16,02,23,14.80
2018,07,16,02,24,14.70
2018,07,16,02,25,14.70
2018,07,16,02,26,14.70
2018,07,16,02,27,14.70
2018,07,16,02,28,14.70
2018,07,16,02,29,14.70
2018,07,16,02,30,14.60
2018,07,16,02,31,14.60
2018,07,16,02,32,14.60
2018,07,16,02,33,14.60
2018,07,16,02,34,14.60
2018,07,16,02,35,14.50
2018,07,16,02,36,14.50
2018,07,16,02,37,14.50
2018,07,16,02,38,14.40
2018,07,16,02,39,14.40
2018,07,16,02,40,14.40
2018,07,16,02,41,14.40
2018,07,16,02,42,14.40
2018,07,16,02,43,14.30
2018,07,16,02,44,14.30
2018,07,16,02,45,14.30
2018,07,16,02,46,14.30
2018,07,16,02,47,14.30
2018,07,16,02,48,14.20
2018,07,16,02,49,14.20
2018,07,16,02,50,14.20
2018,07,16,02,51,14.20
2018,07,16,02,52,14.20
2018,07,16,02,53,14.10
2018,07,16,02,54,14.10
2018,07,16,02,55,14.10
2018,07,16,02,56,14.10
2018,07,16,02,57,14.10
2018,07,16,02,58,14.10
2018,07,16,02,59,14.10
2018,07,16,03,00,14.10
2018,07,16,03,01,14.10
2018,07,16,03,02,14.00
2018,07,16,03,03,14.00
2018,07,16,03,04,14.00
2018,07,16,03,05,13.90
2018,07,16,03,06,13.90
2018,07,16,03,07,13.90
2018,07,16,03,08,13.90
2018,07,16,03,09,13.90
2018,07,16,03,10,13.80
2018,07,16,03,11,13.80
2018,07,16,03,12,13.80
2018,07,16,03,13,13.80
2018,07,16,03,14,13.80
2018,07,16,03,15,13.70
2018,07,16,03,16,13.70
2018,07,16,03,17,13.70
2018,07,16,03,18,13.70
2018,07,16,03,19,13.70
2018,07,16,03,20,13.70
2018,07,16,03,21,13.70
2018,07,16,03,22,13.60
2018,07,16,03,23,13.60
2018,07,16,03,24,13.60
2018,07,16,03,25,13.60
2018,07,16,03,26,13.60
2018,07,16,03,27,13.60
2018,07,16,03,28,13.50
2018,07,16,03,29,13.50
2018,07,16,03,30,13.50
2018,07,16,03,31,13.50
2018,07,16,03,32,13.40
2018,07,16,03,33,13.40
2018,07,16,03,34,13.40
2018,07,16,03,35,13.40
2018,07,16,03,36,13.30
2018,07,16,03,37,13.30
2018,07,16,03,38,13.30
2018,07,16,03,39,13.30
2018,07,16,03,40,13.30
2018,07,16,03,41,13.30
2018,07,16,03,42,13.20
2018,07,16,03,43,13.20
2018,07,16,03,44,13.20
2018,07,16,03,45,13.20
2018,07,16,03,46,13.20
2018,07,16,03,47,13.20
2018,07,16,03,48,13.20
2018,07,16,03,49,13.20
2018,07,16,03,50,13.10
2018,07,16,03,51,13.10
2018,07,16,03,52,13.10
2018,07,16,03,53,13.10
2018,07,16,03,54,13.10
2018,07,16,03,55,13.10
2018,07,16,03,56,13.00
2018,07,16,03,57,13.00
2018,07,16,03,58,13.10
2018,07,16,03,59,13.00
2018,07,16,04,00,13.00
2018,07,16,04,01,13.00
2018,07,16,04,02,13.00
2018,07,16,04,03,13.00
2018,07,16,04,04,13.00
2018,07,16,04,05,13.00
2018,07,16,04,06,13.00
2018,07,16,04,07,13.00
2018,07,16,04,08,13.00
2018,07,16,04,09,12.90
2018,07,16,04,10,12.90
2018,07,16,04,11,12.90
2018,07,16,04,12,12.90
2018,07,16,04,13,12.90
2018,07,16,04,14,12.80
2018,07,16,04,15,12.80
2018,07,16,04,16,12.80
2018,07,16,04,17,12.80
2018,07,16,04,18,12.80
2018,07,16,04,19,12.80
2018,07,16,04,20,12.80
2018,07,16,04,21,12.80
2018,07,16,04,22,12.70
2018,07,16,04,23,12.70
2018,07,16,04,24,12.70
2018,07,16,04,25,12.70
2018,07,16,04,26,12.70
2018,07,16,04,27,12.70
2018,07,16,04,28,12.70
2018,07,16,04,29,12.70
2018,07,16,04,30,12.70
2018,07,16,04,31,12.60
2018,07,16,04,32,12.60
2018,07,16,04,33,12.60
2018,07,16,04,34,12.60
2018,07,16,04,35,12.60
2018,07,16,04,36,12.60
2018,07,16,04,37,12.50
2018,07,16,04,38,12.50
2018,07,16,04,39,12.50
2018,07,16,04,40,12.40
2018,07,16,04,41,12.40
2018,07,16,04,42,12.40
2018,07,16,04,43,12.40
2018,07,16,04,44,12.40
2018,07,16,04,45,12.40
2018,07,16,04,46,12.40
2018,07,16,04,47,12.40
2018,07,16,04,48,12.30
2018,07,16,04,49,12.30
2018,07,16,04,50,12.30
2018,07,16,04,51,12.30
2018,07,16,04,52,12.30
2018,07,16,04,53,12.20
2018,07,16,04,54,12.20
2018,07,16,04,55,12.20
2018,07,16,04,56,12.20
2018,07,16,04,57,12.20
2018,07,16,04,58,12.10
2018,07,16,04,59,12.10
2018,07,16,05,00,12.10
2018,07,16,05,01,12.10
2018,07,16,05,02,12.10
2018,07,16,05,03,12.10
2018,07,16,05,04,12.10
2018,07,16,05,05,12.10
2018,07,16,05,06,12.10
2018,07,16,05,07,12.10
2018,07,16,05,08,12.10
2018,07,16,05,09,12.10
2018,07,16,05,10,12.10
2018,07,16,05,11,12.10
2018,07,16,05,12,12.10
2018,07,16,05,13,12.00
2018,07,16,05,14,12.00
2018,07,16,05,15,12.00
2018,07,16,05,16,12.00
2018,07,16,05,17,11.90
2018,07,16,05,18,11.90
2018,07,16,05,19,11.90
2018,07,16,05,20,11.90
2018,07,16,05,21,11.90
2018,07,16,05,22,11.90
2018,07,16,05,23,11.90
2018,07,16,05,24,11.90
2018,07,16,05,25,11.80
2018,07,16,05,26,11.80
2018,07,16,05,27,11.80
2018,07,16,05,28,11.80
2018,07,16,05,29,11.80
2018,07,16,05,30,11.80
2018,07,16,05,31,11.80
2018,07,16,05,32,11.80
2018,07,16,05,33,11.80
2018,07,16,05,34,11.80
2018,07,16,05,35,11.70
2018,07,16,05,36,11.70
2018,07,16,05,37,11.70
2018,07,16,05,38,11.70
2018,07,16,05,39,11.70
2018,07,16,05,40,11.70
2018,07,16,05,41,11.70
2018,07,16,05,42,11.70
2018,07,16,05,43,11.70
2018,07,16,05,44,11.60
2018,07,16,05,45,11.60
2018,07,16,05,46,11.60
2018,07,16,05,47,11.60
2018,07,16,05,48,11.60
2018,07,16,05,49,11.60
2018,07,16,05,50,11.60
2018,07,16,05,51,11.60
2018,07,16,05,52,11.60
2018,07,16,05,53,11.60
2018,07,16,05,54,11.60
2018,07,16,05,55,11.50
2018,07,16,05,56,11.50
2018,07,16,05,57,11.50
2018,07,16,05,58,11.50
2018,07,16,05,59,11.50
2018,07,16,06,00,11.50
2018,07,16,06,01,11.50
2018,07,16,06,02,11.50
2018,07,16,06,03,11.50
2018,07,16,06,04,11.50
2018,07,16,06,05,11.50
2018,07,16,06,06,11.40
2018,07,16,06,07,11.40
2018,07,16,06,08,11.40
2018,07,16,06,09,11.50
2018,07,16,06,10,11.50
2018,07,16,06,11,11.50
2018,07,16,06,12,11.50
2018,07,16,06,13,11.50
2018,07,16,06,14,11.50
2018,07,16,06,15,11.50
2018,07,16,06,16,11.50
2018,07,16,06,17,11.50
2018,07,16,06,18,11.50
2018,07,16,06,19,11.50
2018,07,16,06,20,11.50
2018,07,16,06,21,11.40
2018,07,16,06,22,11.50
2018,07,16,06,23,11.40
2018,07,16,06,24,11.40
2018,07,16,06,25,11.40
2018,07,16,06,26,11.40
2018,07,16,06,27,11.40
2018,07,16,06,28,11.40
2018,07,16,06,29,11.40
2018,07,16,06,30,11.40
2018,07,16,06,31,11.40
2018,07,16,06,32,11.40
2018,07,16,06,33,11.40
2018,07,16,06,34,11.40
2018,07,16,06,35,11.40
2018,07,16,06,36,11.40
2018,07,16,06,37,11.40
2018,07,16,06,38,11.40
2018,07,16,06,39,11.40
2018,07,16,06,40,11.40
2018,07,16,06,41,11.50
2018,07,16,06,42,11.50
2018,07,16,06,43,11.50
2018,07,16,06,44,11.50
2018,07,16,06,45,11.50
2018,07,16,06,46,11.50
2018,07,16,06,47,11.40
2018,07,16,06,48,11.40
2018,07,16,06,49,11.40
2018,07,16,06,50,11.40
2018,07,16,06,51,11.40
2018,07,16,06,52,11.40
2018,07,16,06,53,11.50
2018,07,16,06,54,11.50
2018,07,16,06,55,11.50
2018,07,16,06,56,11.50
2018,07,16,06,57,11.50
2018,07,16,06,58,11.50
2018,07,16,06,59,11.60
2018,07,16,07,00,11.60
2018,07,16,07,01,11.60
2018,07,16,07,02,11.70
2018,07,16,07,03,11.70
2018,07,16,07,04,11.80
2018,07,16,07,05,11.80
2018,07,16,07,06,11.90
2018,07,16,07,07,11.90
2018,07,16,07,08,12.00
2018,07,16,07,09,12.10
2018,07,16,07,10,12.20
2018,07,16,07,11,12.30
2018,07,16,07,12,12.40
2018,07,16,07,13,12.50
2018,07,16,07,14,12.60
2018,07,16,07,15,12.60
2018,07,16,07,16,12.70
2018,07,16,07,17,12.80
2018,07,16,07,18,12.80
2018,07,16,07,19,12.90
2018,07,16,07,20,12.90
2018,07,16,07,21,13.00
2018,07,16,07,22,13.00
2018,07,16,07,23,13.00
2018,07,16,07,24,13.10
2018,07,16,07,25,13.10
2018,07,16,07,26,13.20
2018,07,16,07,27,13.20
2018,07,16,07,28,13.20
2018,07,16,07,29,13.30
2018,07,16,07,30,13.30
2018,07,16,07,31,13.40
2018,07,16,07,32,13.40
2018,07,16,07,33,13.50
2018,07,16,07,34,13.60
2018,07,16,07,35,13.60
2018,07,16,07,36,13.70
2018,07,16,07,37,13.70
2018,07,16,07,38,13.70
2018,07,16,07,39,13.80
2018,07,16,07,40,13.80
2018,07,16,07,41,13.90
2018,07,16,07,42,14.00
2018,07,16,07,43,14.10
2018,07,16,07,44,14.20
2018,07,16,07,45,14.20
2018,07,16,07,46,14.30
2018,07,16,07,47,14.40
2018,07,16,07,48,14.40
2018,07,16,07,49,14.50
2018,07,16,07,50,14.50
2018,07,16,07,51,14.60
2018,07,16,07,52,14.70
2018,07,16,07,53,14.80
2018,07,16,07,54,14.80
2018,07,16,07,55,14.90
2018,07,16,07,56,15.00
2018,07,16,07,57,15.00
2018,07,16,07,58,15.10
2018,07,16,07,59,15.10
2018,07,16,08,00,15.10
2018,07,16,08,01,15.20
2018,07,16,08,02,15.20
2018,07,16,08,03,15.30
2018,07,16,08,04,15.40
2018,07,16,08,05,15.50
2018,07,16,08,06,15.60
2018,07,16,08,07,15.60
2018,07,16,08,08,15.70
2018,07,16,08,09,15.70
2018,07,16,08,10,15.70
2018,07,16,08,11,15.80
2018,07,16,08,12,15.80
2018,07,16,08,13,15.80
2018,07,16,08,14,15.80
2018,07,16,08,15,15.80
2018,07,16,08,16,15.90
2018,07,16,08,17,15.90
2018,07,16,08,18,15.90
2018,07,16,08,19,16.00
2018,07,16,08,20,16.10
2018,07,16,08,21,16.10
2018,07,16,08,22,16.20
2018,07,16,08,23,16.20
2018,07,16,08,24,16.30
2018,07,16,08,25,16.40
2018,07,16,08,26,16.40
2018,07,16,08,27,16.50
2018,07,16,08,28,16.50
2018,07,16,08,29,16.60
2018,07,16,08,30,16.70
2018,07,16,08,31,16.70
2018,07,16,08,32,16.70
2018,07,16,08,33,16.80
2018,07,16,08,34,16.80
2018,07,16,08,36,16.90
2018,07,16,08,37,16.90
2018,07,16,08,38,17.00
2018,07,16,08,39,17.10
2018,07,16,08,40,17.20
2018,07,16,08,41,17.30
2018,07,16,08,42,17.30
2018,07,16,08,43,17.30
2018,07,16,08,44,17.40
2018,07,16,08,45,17.40
2018,07,16,08,46,17.40
2018,07,16,08,47,17.40
2018,07,16,08,48,17.50
2018,07,16,08,49,17.50
2018,07,16,08,50,17.60
2018,07,16,08,51,17.60
2018,07,16,08,52,17.70
2018,07,16,08,53,17.70
2018,07,16,08,54,17.70
2018,07,16,08,55,17.70
2018,07,16,08,56,17.70
2018,07,16,08,57,17.70
2018,07,16,08,58,17.70
2018,07,16,08,59,17.70
2018,07,16,09,00,17.80
2018,07,16,09,01,17.80
2018,07,16,09,02,17.80
2018,07,16,09,03,17.80
2018,07,16,09,04,17.80
2018,07,16,09,05,17.80
2018,07,16,09,06,17.90
2018,07,16,09,07,17.90
2018,07,16,09,08,17.90
2018,07,16,09,09,17.90
2018,07,16,09,10,17.90
2018,07,16,09,11,17.90
2018,07,16,09,12,17.90
2018,07,16,09,13,18.00
2018,07,16,09,14,18.00
2018,07,16,09,15,18.10
2018,07,16,09,16,18.20
2018,07,16,09,17,18.30
2018,07,16,09,18,18.40
2018,07,16,09,19,18.50
2018,07,16,09,20,18.70
2018,07,16,09,21,18.70
2018,07,16,09,22,18.70
2018,07,16,09,23,18.70
2018,07,16,09,24,18.70
2018,07,16,09,25,18.60
2018,07,16,09,26,18.60
2018,07,16,09,27,18.60
2018,07,16,09,28,18.70
2018,07,16,09,29,18.70
2018,07,16,09,30,18.70
2018,07,16,09,31,18.70
2018,07,16,09,32,18.80
2018,07,16,09,33,18.80
2018,07,16,09,34,18.80
2018,07,16,09,35,18.70
2018,07,16,09,36,18.70
2018,07,16,09,37,18.70
2018,07,16,09,38,18.80
2018,07,16,09,39,18.80
2018,07,16,09,40,18.80
2018,07,16,09,41,18.90
2018,07,16,09,42,19.00
2018,07,16,09,43,19.00
2018,07,16,09,44,19.00
2018,07,16,09,45,19.10
2018,07,16,09,46,19.10
2018,07,16,09,47,19.10
2018,07,16,09,48,19.10
2018,07,16,09,49,19.20
2018,07,16,09,50,19.20
2018,07,16,09,51,19.30
2018,07,16,09,52,19.40
2018,07,16,09,53,19.50
2018,07,16,09,54,19.60
2018,07,16,09,55,19.60
2018,07,16,09,56,19.70
2018,07,16,09,57,19.70
2018,07,16,09,58,19.70
2018,07,16,09,59,19.80
2018,07,16,10,00,19.80
2018,07,16,10,01,19.80
2018,07,16,10,02,19.90
2018,07,16,10,03,20.00
2018,07,16,10,04,20.00
2018,07,16,10,05,20.10
2018,07,16,10,06,20.10
2018,07,16,10,07,20.10
2018,07,16,10,08,20.20
2018,07,16,10,09,20.20
2018,07,16,10,10,20.20
2018,07,16,10,11,20.20
2018,07,16,10,12,20.30
2018,07,16,10,13,20.30
2018,07,16,10,14,20.30
2018,07,16,10,15,20.40
2018,07,16,10,16,20.50
2018,07,16,10,17,20.50
2018,07,16,10,18,20.60
2018,07,16,10,19,20.70
2018,07,16,10,20,20.70
2018,07,16,10,21,20.80
2018,07,16,10,22,20.90
2018,07,16,10,23,21.00
2018,07,16,10,24,21.00
2018,07,16,10,25,21.10
2018,07,16,10,26,21.20
2018,07,16,10,27,21.20
2018,07,16,10,28,21.30
2018,07,16,10,29,21.30
2018,07,16,10,30,21.30
2018,07,16,10,31,21.40
2018,07,16,10,32,21.50
2018,07,16,10,33,21.50
2018,07,16,10,34,21.50
2018,07,16,10,35,21.60
2018,07,16,10,36,21.60
2018,07,16,10,37,21.60
2018,07,16,10,38,21.70
2018,07,16,10,39,21.90
2018,07,16,10,40,22.00
2018,07,16,10,41,22.10
2018,07,16,10,42,22.10
2018,07,16,10,43,22.20
2018,07,16,10,44,22.30
2018,07,16,10,45,22.30
2018,07,16,10,46,22.40
2018,07,16,10,47,22.40
2018,07,16,10,48,22.40
2018,07,16,10,49,22.30
2018,07,16,10,50,22.40
2018,07,16,10,51,22.40
2018,07,16,10,52,22.40
2018,07,16,10,53,22.50
2018,07,16,10,54,22.50
2018,07,16,10,55,22.60
2018,07,16,10,56,22.60
2018,07,16,10,57,22.70
2018,07,16,10,58,22.80
2018,07,16,10,59,22.80
2018,07,16,11,00,22.90
2018,07,16,11,01,23.00
2018,07,16,11,02,23.10
2018,07,16,11,03,23.10
2018,07,16,11,04,23.20
2018,07,16,11,05,23.20
2018,07,16,11,06,23.20
2018,07,16,11,07,23.30
2018,07,16,11,08,23.30
2018,07,16,11,09,23.30
2018,07,16,11,10,23.40
2018,07,16,11,11,23.40
2018,07,16,11,12,23.50
2018,07,16,11,13,23.60
2018,07,16,11,14,23.60
2018,07,16,11,15,23.70
2018,07,16,11,16,23.70
2018,07,16,11,17,23.80
2018,07,16,11,18,23.80
2018,07,16,11,19,23.90
2018,07,16,11,20,23.90
2018,07,16,11,21,24.00
2018,07,16,11,22,24.10
2018,07,16,11,23,24.10
2018,07,16,11,24,24.20
2018,07,16,11,25,24.20
2018,07,16,11,26,24.20
2018,07,16,11,27,24.20
2018,07,16,11,28,24.20
2018,07,16,11,29,24.20
2018,07,16,11,30,24.20
2018,07,16,11,31,24.10
2018,07,16,11,32,24.20
2018,07,16,11,33,24.20
2018,07,16,11,34,24.30
2018,07,16,11,35,24.30
2018,07,16,11,36,24.40
2018,07,16,11,37,24.50
2018,07,16,11,38,24.60
2018,07,16,11,39,24.70
2018,07,16,11,40,24.70
2018,07,16,11,41,24.90
2018,07,16,11,42,25.00
2018,07,16,11,43,25.10
2018,07,16,11,44,25.20
2018,07,16,11,45,25.30
2018,07,16,11,46,25.40
2018,07,16,11,47,25.50
2018,07,16,11,48,25.50
2018,07,16,11,49,25.50
2018,07,16,11,50,25.60
2018,07,16,11,51,25.60
2018,07,16,11,52,25.60
2018,07,16,11,53,25.60
2018,07,16,11,54,25.70
2018,07,16,11,55,25.80
2018,07,16,11,56,25.80
2018,07,16,11,57,25.80
2018,07,16,11,58,25.90
2018,07,16,11,59,25.90
2018,07,16,12,00,26.00
2018,07,16,12,01,26.10
2018,07,16,12,02,26.20
2018,07,16,12,03,26.30
2018,07,16,12,04,26.40
2018,07,16,12,05,26.50
2018,07,16,12,06,26.60
2018,07,16,12,07,26.60
2018,07,16,12,08,26.60
2018,07,16,12,09,26.60
2018,07,16,12,10,26.60
2018,07,16,12,11,26.70
2018,07,16,12,12,26.70
2018,07,16,12,13,26.80
2018,07,16,12,14,26.80
2018,07,16,12,15,26.80
2018,07,16,12,16,26.90
2018,07,16,12,17,26.90
2018,07,16,12,18,26.90
2018,07,16,12,19,26.90
2018,07,16,12,20,26.90
2018,07,16,12,21,27.00
2018,07,16,12,22,27.10
2018,07,16,12,23,27.20
2018,07,16,12,24,27.20
2018,07,16,12,25,27.30
2018,07,16,12,26,27.30
2018,07,16,12,27,27.30
2018,07,16,12,28,27.30
2018,07,16,12,29,27.40
2018,07,16,12,30,27.50
2018,07,16,12,31,27.70
2018,07,16,12,32,27.80
2018,07,16,12,33,27.90
2018,07,16,12,34,27.90
2018,07,16,12,35,27.90
2018,07,16,12,36,27.90
2018,07,16,12,37,28.00
2018,07,16,12,38,28.10
2018,07,16,12,39,28.20
2018,07,16,12,40,28.30
2018,07,16,12,41,28.30
2018,07,16,12,42,28.30
2018,07,16,12,43,28.30
2018,07,16,12,44,28.30
2018,07,16,12,45,28.30
2018,07,16,12,46,28.40
2018,07,16,12,47,28.40
2018,07,16,12,48,28.50
2018,07,16,12,49,28.70
2018,07,16,12,50,28.80
2018,07,16,12,51,28.90
2018,07,16,12,52,29.00
2018,07,16,12,53,29.10
2018,07,16,12,54,29.10
2018,07,16,12,55,29.20
2018,07,16,12,56,29.20
2018,07,16,12,57,29.30
2018,07,16,12,58,29.50
2018,07,16,12,59,29.60
2018,07,16,13,00,29.70
2018,07,16,13,01,29.80
2018,07,16,13,02,29.80
2018,07,16,13,03,29.90
2018,07,16,13,04,30.00
2018,07,16,13,05,30.10
2018,07,16,13,06,30.20
2018,07,16,13,07,30.30
2018,07,16,13,08,30.40
2018,07,16,13,09,30.50
2018,07,16,13,10,30.50
2018,07,16,13,11,30.60
2018,07,16,13,12,30.60
2018,07,16,13,13,30.70
2018,07,16,13,14,30.70
2018,07,16,13,15,30.70
2018,07,16,13,16,30.70
2018,07,16,13,17,30.80
2018,07,16,13,18,30.90
2018,07,16,13,19,30.90
2018,07,16,13,20,31.00
2018,07,16,13,21,31.00
2018,07,16,13,22,31.10
2018,07,16,13,23,31.30
2018,07,16,13,24,31.40
2018,07,16,13,25,31.50
2018,07,16,13,26,31.60
2018,07,16,13,27,31.60
2018,07,16,13,28,31.70
2018,07,16,13,29,31.70
2018,07,16,13,30,31.80
2018,07,16,13,31,31.90
2018,07,16,13,32,32.00
2018,07,16,13,33,32.00
2018,07,16,13,34,32.10
2018,07,16,13,35,32.10
2018,07,16,13,36,32.10
2018,07,16,13,37,32.10
2018,07,16,13,38,32.10
2018,07,16,13,39,32.10
2018,07,16,13,40,32.10
2018,07,16,13,41,32.20
2018,07,16,13,42,32.20
2018,07,16,13,43,32.20
2018,07,16,13,44,32.10
2018,07,16,13,45,32.20
2018,07,16,13,46,32.20
2018,07,16,13,47,32.30
2018,07,16,13,48,32.30
2018,07,16,13,49,32.40
2018,07,16,13,50,32.50
2018,07,16,13,51,32.50
2018,07,16,13,52,32.50
2018,07,16,13,53,32.40
2018,07,16,13,54,32.40
2018,07,16,13,55,32.40
2018,07,16,13,56,32.40
2018,07,16,13,57,32.30
2018,07,16,13,58,32.30
2018,07,16,13,59,32.30
2018,07,16,14,00,32.20
2018,07,16,14,01,32.20
2018,07,16,14,02,32.20
2018,07,16,14,03,32.20
2018,07,16,14,04,32.20
2018,07,16,14,05,32.20
2018,07,16,14,06,32.20
2018,07,16,14,07,32.30
2018,07,16,14,08,32.40
2018,07,16,14,09,32.40
2018,07,16,14,10,32.50
2018,07,16,14,11,32.60
2018,07,16,14,12,32.80
2018,07,16,14,13,32.90
2018,07,16,14,14,33.10
2018,07,16,14,15,33.20
2018,07,16,14,16,33.30
2018,07,16,14,17,33.40
2018,07,16,14,18,33.40
2018,07,16,14,19,33.50
2018,07,16,14,20,33.50
2018,07,16,14,21,33.60
2018,07,16,14,22,33.60
2018,07,16,14,23,33.70
2018,07,16,14,24,33.60
2018,07,16,14,25,33.60
2018,07,16,14,26,33.50
2018,07,16,14,27,33.60
2018,07,16,14,28,33.60
2018,07,16,14,29,33.60
2018,07,16,14,30,33.60
2018,07,16,14,31,33.50
2018,07,16,14,32,33.40
2018,07,16,14,33,33.40
2018,07,16,14,34,33.30
2018,07,16,14,35,33.30
2018,07,16,14,36,33.30
2018,07,16,14,37,33.30
2018,07,16,14,38,33.40
2018,07,16,14,39,33.40
2018,07,16,14,40,33.40
2018,07,16,14,41,33.40
2018,07,16,14,42,33.40
2018,07,16,14,43,33.50
2018,07,16,14,44,33.50
2018,07,16,14,45,33.60
2018,07,16,14,46,33.70
2018,07,16,14,47,33.80
2018,07,16,14,48,34.00
2018,07,16,14,49,34.00
2018,07,16,14,50,34.10
2018,07,16,14,51,34.10
2018,07,16,14,52,34.10
2018,07,16,14,53,34.10
2018,07,16,14,54,34.10
2018,07,16,14,55,34.00
2018,07,16,14,56,34.00
2018,07,16,14,57,33.90
2018,07,16,14,58,33.90
2018,07,16,14,59,34.00
2018,07,16,15,00,34.10
2018,07,16,15,01,34.20
2018,07,16,15,02,34.30
2018,07,16,15,03,34.50
2018,07,16,15,04,34.60
2018,07,16,15,05,34.70
2018,07,16,15,06,34.60
2018,07,16,15,07,34.50
2018,07,16,15,08,34.30
2018,07,16,15,09,34.10
2018,07,16,15,10,34.10
2018,07,16,15,11,34.00
2018,07,16,15,12,33.90
2018,07,16,15,13,33.90
2018,07,16,15,14,33.90
2018,07,16,15,15,33.90
2018,07,16,15,16,33.80
2018,07,16,15,17,33.70
2018,07,16,15,18,33.60
2018,07,16,15,19,33.60
2018,07,16,15,20,33.60
2018,07,16,15,21,33.50
2018,07,16,15,22,33.50
2018,07,16,15,23,33.40
2018,07,16,15,24,33.40
2018,07,16,15,25,33.40
2018,07,16,15,26,33.40
2018,07,16,15,27,33.40
2018,07,16,15,28,33.40
2018,07,16,15,29,33.40
2018,07,16,15,30,33.40
2018,07,16,15,31,33.50
2018,07,16,15,32,33.60
2018,07,16,15,33,33.60
2018,07,16,15,34,33.50
2018,07,16,15,35,33.40
2018,07,16,15,36,33.40
2018,07,16,15,37,33.40
2018,07,16,15,38,33.30
2018,07,16,15,39,33.40
2018,07,16,15,40,33.50
2018,07,16,15,41,33.50
2018,07,16,15,42,33.60
2018,07,16,15,43,33.60
2018,07,16,15,44,33.50
2018,07,16,15,45,33.50
2018,07,16,15,46,33.40
2018,07,16,15,47,33.40
2018,07,16,15,48,33.30
2018,07,16,15,49,33.30
2018,07,16,15,50,33.30
2018,07,16,15,51,33.30
2018,07,16,15,52,33.30
2018,07,16,15,53,33.30
2018,07,16,15,54,33.20
2018,07,16,15,55,33.20
2018,07,16,15,56,33.20
2018,07,16,15,57,33.10
2018,07,16,15,58,33.10
2018,07,16,15,59,33.10
2018,07,16,16,00,33.10
2018,07,16,16,01,33.20
2018,07,16,16,02,33.20
2018,07,16,16,03,33.20
2018,07,16,16,04,33.20
2018,07,16,16,05,33.20
2018,07,16,16,06,33.20
2018,07,16,16,07,33.30
2018,07,16,16,08,33.30
2018,07,16,16,09,33.30
2018,07,16,16,10,33.30
2018,07,16,16,11,33.40
2018,07,16,16,12,33.40
2018,07,16,16,13,33.40
2018,07,16,16,14,33.40
2018,07,16,16,15,33.40
2018,07,16,16,16,33.40
2018,07,16,16,17,33.40
2018,07,16,16,18,33.40
2018,07,16,16,19,33.40
2018,07,16,16,20,33.40
2018,07,16,16,21,33.40
2018,07,16,16,22,33.40
2018,07,16,16,23,33.30
2018,07,16,16,24,33.30
2018,07,16,16,25,33.30
2018,07,16,16,26,33.30
2018,07,16,16,27,33.30
2018,07,16,16,28,33.30
2018,07,16,16,29,33.30
2018,07,16,16,30,33.30
2018,07,16,16,31,33.30
2018,07,16,16,32,33.20
2018,07,16,16,33,33.20
2018,07,16,16,34,33.20
2018,07,16,16,35,33.20
2018,07,16,16,36,33.30
2018,07,16,16,37,33.30
2018,07,16,16,38,33.30
2018,07,16,16,39,33.20
2018,07,16,16,40,33.20
2018,07,16,16,41,33.20
2018,07,16,16,42,33.20
2018,07,16,16,43,33.30
2018,07,16,16,44,33.20
2018,07,16,16,45,33.20
2018,07,16,16,46,33.20
2018,07,16,16,47,33.20
2018,07,16,16,48,33.20
2018,07,16,16,49,33.20
2018,07,16,16,50,33.20
2018,07,16,16,51,33.20
2018,07,16,16,52,33.20
2018,07,16,16,53,33.20
2018,07,16,16,54,33.10
2018,07,16,16,55,33.10
2018,07,16,16,56,33.10
2018,07,16,16,57,33.00
2018,07,16,16,58,33.00
2018,07,16,16,59,32.90
2018,07,16,17,00,32.90
2018,07,16,17,01,32.90
2018,07,16,17,02,32.80
2018,07,16,17,03,32.90
2018,07,16,17,04,32.90
2018,07,16,17,05,32.90
2018,07,16,17,06,32.90
2018,07,16,17,07,32.90
2018,07,16,17,08,32.90
2018,07,16,17,09,33.00
2018,07,16,17,10,33.00
2018,07,16,17,11,32.90
2018,07,16,17,12,33.00
2018,07,16,17,13,33.00
2018,07,16,17,14,33.10
2018,07,16,17,15,33.00
2018,07,16,17,16,33.00
2018,07,16,17,17,32.90
2018,07,16,17,18,32.90
2018,07,16,17,19,32.90
2018,07,16,17,20,32.80